Regional Weather Roundup
Issued by NWS

Home | Current Version | Previous Version | Graphics & Text | Print | Product List | Glossary On
Versions: 1 2 3 4 5 6 7 8 9 10 11 12 13 14 15 16 17 18 19 20 21 22 23 24 25 26 27 28 29 30 31 32 33 34 35 36 37 38 39 40 41 42 43 44 45 46 47 48 49 50
000
ASUS45 KTFX 290210
RWRMT
MONTANA REGIONAL WEATHER ROUNDUP
NATIONAL WEATHER SERVICE GREAT FALLS MT
800 PM MDT FRI AUG 28 2015

NOTE: "FAIR" INDICATES FEW OR NO CLOUDS BELOW 12000 FEET WITH NO
SIGNIFICANT WEATHER AND/OR OBSTRUCTIONS TO VISIBILITY.

MTZ001>007-043-290300-
WEST OF THE DIVIDE

CITY           SKY/WX    TMP DP  RH WIND       PRES   REMARKS
KALISPELL      CLOUDY    74  40  29 W5        29.95F SMOKE
MISSOULA       CLOUDY    75  41  29 NE3       29.99F HAZE
BUTTE          CLOUDY    76  35  22 N16G22    30.12R
MULLAN PASS    CLOUDY    59  40  49 S8        30.13F HAZE
DEER LODGE       N/A     75  39  27 N12G20    30.10R
EUREKA           N/A     73  43  33 E3        29.93F
HAMILTON         N/A     73  45  35 W2        30.02S
LIBBY            N/A     77  41  27 SE5       29.94S
PLAINS           N/A     76  44  31 CALM      29.97S
$$

MTZ008-052>055-290300-
SOUTHWEST MONTANA

CITY           SKY/WX    TMP DP  RH WIND       PRES   REMARKS
BOZEMAN        PTCLDY    70  47  43 SE9       30.01F
DILLON         CLOUDY    76  39  26 W6        30.06R
W YELLOWSTONE  PTCLDY    72  32  23 S7        30.23S
$$

MTZ009-010-012-014-046-048-049-054-290300-
EAST SLOPES AND CENTRAL MONTANA

CITY           SKY/WX    TMP DP  RH WIND       PRES   REMARKS
CUT BANK       CLOUDY    73  37  27 W9        29.94F HAZE
GREAT FALLS    CLOUDY    81  36  19 W18       29.94R HAZE
MALMSTROM AFB  CLOUDY    84  37  18 W13G22    29.94R HAZE
HELENA         CLOUDY    82  39  21 NW15      29.99R SMOKE
CONRAD           N/A     80  48  32 SW17      29.98R
$$

MTZ011-013-016-021-045-047-050-051-290300-
NORTH CENTRAL MONTANA

CITY           SKY/WX    TMP DP  RH WIND       PRES   REMARKS
HAVRE          CLOUDY    76  46  34 E8        29.84R
LEWISTOWN      MOCLDY    78  37  22 SE9       29.99F
N BAR RANCH      N/A     73  34  23 VRB5      30.05F
CHINOOK          N/A     75  48  38 E5        29.85R
FORT BENTON      N/A     82  39  21 CALM      29.88R
$$

MTZ017>020-022>027-061-062-290300-
NORTHEAST MONTANA

CITY           SKY/WX    TMP DP  RH WIND       PRES   REMARKS
GLASGOW        CLOUDY    75  39  27 N5        29.90S HAZE
JORDAN           N/A     71  44  37 CALM      29.93S
SIDNEY         PTCLDY    72  46  40 CALM      29.91R
WOLF POINT     CLOUDY    70  48  45 SW5       29.90R HAZE
MALTA            N/A     72  50  45 CALM      29.86F
PLENTYWOOD       N/A     77  46  33 W5        29.90R
POPLAR           N/A     79  45  29 CALM      29.91R
$$

MTZ028>42-056>058-290300-
SOUTHCENTRAL AND SOUTHEAST MONTANA

CITY           SKY/WX    TMP DP  RH WIND       PRES   REMARKS
BAKER          CLOUDY    72  49  44 CALM      30.00R HAZE
BILLINGS       MOCLDY    83  39  21 SE5       30.01R HAZE
LIVINGSTON     PTCLDY    76  37  24 S7        30.03S
MILES CITY     CLOUDY    78  41  26 SW8       29.96R HAZE
FORSYTH          N/A     81  41  24 SE5       29.95F
LAUREL           N/A     82  45  27 CALM      29.99F
$$

REGIONAL REPORTS...DAKOTAS

CITY           SKY/WX    TMP DP  RH WIND       PRES   REMARKS
WILLISTON      CLOUDY    71  48  43 W8        29.90R HAZE
MINOT          PTCLDY    70  62  76 N3        29.87R
DICKINSON      PTCLDY    71  52  50 W6        29.94R
CROSBY           N/A     68  54  60 W10       29.88R HAZE
BISMARCK       PTCLDY    72  66  81 SE7       29.89R
GRAND FORKS    PTCLDY    72  67  84 S7        29.85R
FARGO          CLEAR     76  65  68 S14       29.91R
BUFFALO SD       N/A     74  52  46 W5        29.95R
RAPID CITY     CLEAR     73  60  63 CALM      30.04R
$$

REGIONAL REPORTS...WYOMING/IDAHO/WASHINGTON

CITY           SKY/WX    TMP DP  RH WIND       PRES   REMARKS
GILLETTE       PTCLDY    64  49  57 S6        30.10S
SHERIDAN       PTCLDY    68  50  52 S5        30.07R HAZE
BUFFALO WY     PTCLDY    72  44  36 W8        30.16R HAZE
CODY           MOCLDY    77  39  25 SE9       30.12S
YELLOWSTONE LA   N/A     60  39  45 CALM      30.36S
IDAHO FALLS    MOCLDY    82  42  24 S7        30.07F
SALMON         CLOUDY    77  43  29 N10       29.96S
BOISE          CLOUDY    85  40  20 N6        29.87F
SPOKANE        CLOUDY    78  42  27 S8        29.92S
$$

REGIONAL REPORTS...ALBERTA

CITY           SKY/WX    TMP DP  RH WIND       PRES   REMARKS
EDMONTON       CLEAR     72  48  43 NW5       29.65F
CALGARY        MOCLDY    72  46  40 SW5       29.80F
LETHBRIDGE     MOCLDY    75  41  29 W23       29.86R
MEDICINE HAT     N/A     75  46  35 S6        29.79S SMOKE
CARDSTON         N/A     73  41  31 W8          N/A
MILK RIVER       N/A     77  39  25 SW14G21     N/A
ONEFOUR          N/A     79  32  18 S3          N/A
$$

REGIONAL REPORTS...SASKATCHEWAN

CITY           SKY/WX    TMP DP  RH WIND       PRES   REMARKS
SWIFT CURRENT  CLEAR     72  46  40 S9        29.84S HAZE
REGINA         CLOUDY    68  57  68 SW2       29.85S SMOKE
SASKATOON      CLOUDY    72  61  68 S9        29.79S
CYPRESS HILLS    N/A     72  34  25 S6          N/A
VAL MARIE        N/A     64  46  52 S8          N/A
ROCKGLEN         N/A     64  52  63 S9          N/A
$$



USA.gov is the U.S. government's official web portal to all federal, state and local government web resources and services.